timestamp,wind_dir_avg,wind_spd_avg,wind_spd_max_dir,wind_spd_gust,battery_voltage,lat,long
2020-05-07 04:14:01+00:00,,,,,12.49,47.59359,-54.27349
2020-05-07 04:24:01+00:00,,,,,12.49,47.59359,-54.27349
2020-05-07 04:34:01+00:00,,,,,12.49,47.59359,-54.27349
2020-05-07 04:44:01+00:00,,,,,12.49,47.59359,-54.27349
2020-05-07 04:54:01+00:00,,,,,12.49,47.59359,-54.27349
2020-05-07 05:04:01+00:00,,,,,12.49,47.59359,-54.27349
2020-05-07 05:14:01+00:00,,,,,12.49,47.59359,-54.27349
2020-05-07 05:24:01+00:00,,,,,12.49,47.59359,-54.27349
2020-05-07 05:34:01+00:00,,,,,12.49,47.59359,-54.27349
2020-05-07 05:44:01+00:00,,,,,12.49,47.59359,-54.27349
2020-05-07 05:54:01+00:00,,,,,12.49,47.59359,-54.27349
2020-05-07 06:04:01+00:00,,,,,12.49,47.59359,-54.27349
2020-05-07 06:14:01+00:00,,,,,12.49,47.59359,-54.27349
2020-05-07 06:24:01+00:00,,,,,12.49,47.59359,-54.27349
2020-05-07 06:34:01+00:00,,,,,12.49,47.59359,-54.27349
2020-05-07 06:44:01+00:00,,,,,12.49,47.59359,-54.27349
2020-05-07 06:54:01+00:00,,,,,12.49,47.59359,-54.27349
2020-05-07 07:04:01+00:00,,,,,12.49,47.59359,-54.27349
2020-05-07 07:14:01+00:00,,,,,12.49,47.59359,-54.27349
2020-05-07 07:24:01+00:00,,,,,12.49,47.59359,-54.27349
2020-05-07 07:34:01+00:00,,,,,12.49,47.59359,-54.27349
2020-05-07 07:44:01+00:00,,,,,12.49,47.59359,-54.27349
2020-05-07 07:54:01+00:00,,,,,12.49,47.59359,-54.27349
2020-05-07 08:04:01+00:00,,,,,12.49,47.59359,-54.27349
2020-05-07 08:14:01+00:00,,,,,12.41,47.59359,-54.27349
2020-05-07 08:24:01+00:00,,,,,12.41,47.59359,-54.27349
2020-05-07 08:34:01+00:00,,,,,12.41,47.59359,-54.27349
2020-05-07 08:44:01+00:00,,,,,12.41,47.59359,-54.27349
2020-05-07 08:54:01+00:00,,,,,12.41,47.59359,-54.27349
2020-05-07 09:04:01+00:00,,,,,12.41,47.59359,-54.27349
2020-05-07 09:14:01+00:00,,,,,12.65,47.59359,-54.27349
2020-05-07 09:24:01+00:00,,,,,12.65,47.59359,-54.27349
2020-05-07 09:34:01+00:00,,,,,12.65,47.59359,-54.27349
2020-05-07 09:44:01+00:00,,,,,12.65,47.59359,-54.27349
2020-05-07 09:54:01+00:00,,,,,12.65,47.59359,-54.27349
2020-05-07 10:04:01+00:00,,,,,12.65,47.59359,-54.27349
2020-05-07 10:14:01+00:00,,,,,13.76,47.59359,-54.27349
2020-05-07 10:24:01+00:00,,,,,13.76,47.59359,-54.27349
2020-05-07 10:34:01+00:00,,,,,13.76,47.59359,-54.27349
2020-05-07 10:44:01+00:00,,,,,13.76,47.59359,-54.27349
2020-05-07 10:54:01+00:00,,,,,13.76,47.59359,-54.27349
2020-05-07 11:04:01+00:00,,,,,13.76,47.59359,-54.27349
2020-05-07 11:14:01+00:00,,,,,13.68,47.59359,-54.27349
2020-05-07 11:24:01+00:00,,,,,13.68,47.59359,-54.27349
2020-05-07 11:34:01+00:00,,,,,13.68,47.59359,-54.27349
2020-05-07 11:44:01+00:00,,,,,13.68,47.59359,-54.27349
2020-05-07 11:54:01+00:00,,,,,13.68,47.59359,-54.27349
2020-05-07 12:04:01+00:00,,,,,13.68,47.59359,-54.27349
2020-05-07 12:14:01+00:00,,,,,13.68,47.59359,-54.27349
2020-05-07 12:24:01+00:00,,,,,13.68,47.59359,-54.27349
2020-05-07 12:34:01+00:00,,,,,13.68,47.59359,-54.27349
2020-05-07 12:44:01+00:00,,,,,13.68,47.59359,-54.27349
2020-05-07 12:54:01+00:00,,,,,13.68,47.59359,-54.27349
2020-05-07 13:04:01+00:00,,,,,13.68,47.59359,-54.27349
2020-05-07 13:14:01+00:00,,,,,14.24,47.59359,-54.27349
2020-05-07 13:24:01+00:00,,,,,14.24,47.59359,-54.27349
2020-05-07 13:34:01+00:00,,,,,14.24,47.59359,-54.27349
2020-05-07 13:44:01+00:00,,,,,14.24,47.59359,-54.27349
2020-05-07 13:54:01+00:00,,,,,14.24,47.59359,-54.27349
2020-05-07 14:04:01+00:00,,,,,14.24,47.59359,-54.27349
2020-05-07 14:14:01+00:00,,,,,13.92,47.59359,-54.27349
2020-05-07 14:24:01+00:00,,,,,13.92,47.59359,-54.27349
2020-05-07 14:34:01+00:00,,,,,13.92,47.59359,-54.27349
2020-05-07 14:44:01+00:00,,,,,13.92,47.59359,-54.27349
2020-05-07 14:54:01+00:00,,,,,13.92,47.59359,-54.27349
2020-05-07 15:04:01+00:00,,,,,13.92,47.59359,-54.27349
2020-05-07 15:14:01+00:00,,,,,14.0,47.59359,-54.27349
2020-05-07 15:24:01+00:00,,,,,14.0,47.59359,-54.27349
2020-05-07 15:34:01+00:00,,,,,14.0,47.59359,-54.27349
2020-05-07 15:44:01+00:00,,,,,14.0,47.59359,-54.27349
2020-05-07 15:54:01+00:00,,,,,14.0,47.59359,-54.27349
2020-05-07 16:04:01+00:00,,,,,14.0,47.59359,-54.27349
2020-05-07 16:14:01+00:00,,,,,14.24,47.59359,-54.27349
2020-05-07 16:24:01+00:00,,,,,14.24,47.59359,-54.27349
2020-05-07 16:34:01+00:00,,,,,14.24,47.59359,-54.27349
2020-05-07 16:44:01+00:00,,,,,14.24,47.59359,-54.27349
2020-05-07 16:54:01+00:00,,,,,14.24,47.59359,-54.27349
2020-05-07 17:04:01+00:00,,,,,14.24,47.59359,-54.27349
2020-05-07 17:14:01+00:00,,,,,14.08,47.59359,-54.27349
2020-05-07 17:24:01+00:00,,,,,14.08,47.59359,-54.27349
2020-05-07 17:34:01+00:00,,,,,14.08,47.59359,-54.27349
2020-05-07 17:44:01+00:00,,,,,14.08,47.59359,-54.27349
2020-05-07 17:54:01+00:00,,,,,14.08,47.59359,-54.27349
2020-05-07 18:04:01+00:00,,,,,14.08,47.59359,-54.27349
2020-05-07 18:14:01+00:00,,,,,13.92,47.59359,-54.27349
2020-05-07 18:24:01+00:00,,,,,13.92,47.59359,-54.27349
2020-05-07 18:34:01+00:00,,,,,13.92,47.59359,-54.27349
2020-05-07 18:44:01+00:00,,,,,13.92,47.59359,-54.27349
2020-05-07 18:54:01+00:00,,,,,13.92,47.59359,-54.27349
2020-05-07 19:04:01+00:00,,,,,13.92,47.59359,-54.27349
2020-05-07 19:14:01+00:00,,,,,13.84,47.59359,-54.27349
2020-05-07 19:24:01+00:00,,,,,13.84,47.59359,-54.27349
2020-05-07 19:34:01+00:00,,,,,13.84,47.59359,-54.27349
2020-05-07 19:44:01+00:00,,,,,13.84,47.59359,-54.27349
2020-05-07 19:54:01+00:00,,,,,13.84,47.59359,-54.27349
2020-05-07 20:04:01+00:00,,,,,13.84,47.59359,-54.27349
2020-05-07 20:14:01+00:00,,,,,13.84,47.59359,-54.27349
2020-05-07 20:24:01+00:00,,,,,13.84,47.59359,-54.27349
2020-05-07 20:34:01+00:00,,,,,13.84,47.59359,-54.27349
2020-05-07 20:44:01+00:00,,,,,13.84,47.59359,-54.27349
2020-05-07 20:54:01+00:00,,,,,13.84,47.59359,-54.27349
2020-05-07 21:04:01+00:00,,,,,13.84,47.59359,-54.27349
2020-05-07 21:14:01+00:00,,,,,13.53,47.59359,-54.27349
2020-05-07 21:24:01+00:00,,,,,13.53,47.59359,-54.27349
2020-05-07 21:34:01+00:00,,,,,13.53,47.59359,-54.27349
2020-05-07 21:44:01+00:00,,,,,13.53,47.59359,-54.27349
2020-05-07 21:54:01+00:00,,,,,13.53,47.59359,-54.27349
2020-05-07 22:04:01+00:00,,,,,13.53,47.59359,-54.27349
2020-05-07 22:14:01+00:00,,,,,13.29,47.59359,-54.27349
2020-05-07 22:24:01+00:00,,,,,13.29,47.59359,-54.27349
2020-05-07 22:34:01+00:00,,,,,13.29,47.59359,-54.27349
2020-05-07 22:44:01+00:00,,,,,13.29,47.59359,-54.27349
2020-05-07 22:54:01+00:00,,,,,13.29,47.59359,-54.27349
2020-05-07 23:04:01+00:00,,,,,13.29,47.59359,-54.27349
2020-05-07 23:14:01+00:00,,,,,12.89,47.59359,-54.27349
2020-05-07 23:24:01+00:00,,,,,12.89,47.59359,-54.27349
2020-05-07 23:34:01+00:00,,,,,12.89,47.59359,-54.27349
2020-05-07 23:44:01+00:00,,,,,12.89,47.59359,-54.27349
2020-05-07 23:54:01+00:00,,,,,12.89,47.59359,-54.27349
